This is the latest recevied weather packets stored in our database for station/object WI0K. If no packets are shown the sender has not sent any weather packets the latest 10 day(s).
| Time | Temp. | Humidity | Pressure | Rain* | Wind** | Luminosity | Snow |
|---|---|---|---|---|---|---|---|
| 1788292186 | 28.89° C | 29% | 1019.1 hPa | 0 mm | - | 902 W/m² | - |
| 1788291885 | 28.33° C | 29% | 1019.2 hPa | 0 mm | - | 906 W/m² | - |
| 1788291584 | 28.33° C | 31% | 1019.2 hPa | 0 mm | - | 912 W/m² | - |
| 1788291283 | 28.33° C | 30% | 1019.4 hPa | 0 mm | - | 918 W/m² | - |
| 1788290982 | 28.33° C | 27% | 1019.4 hPa | 0 mm | - | 922 W/m² | - |
| 1788290682 | 27.78° C | 28% | 1019.4 hPa | 0 mm | - | 926 W/m² | - |
| 1788290380 | 27.78° C | 29% | 1019.4 hPa | 0 mm | - | 931 W/m² | - |
| 1788290077 | 27.78° C | 30% | 1019.5 hPa | 0 mm | - | 934 W/m² | - |
| 1788289776 | 27.78° C | 32% | 1019.5 hPa | 0 mm | - | 937 W/m² | - |
| 1788289474 | 27.22° C | 33% | 1019.5 hPa | 0 mm | - | 937 W/m² | - |
| 1788289173 | 27.22° C | 31% | 1019.6 hPa | 0 mm | - | 939 W/m² | - |
| 1788288872 | 27.22° C | 34% | 1019.7 hPa | 0 mm | - | 940 W/m² | - |
| 1788288571 | 26.67° C | 37% | 1019.7 hPa | 0 mm | - | 939 W/m² | - |
| 1788288271 | 26.67° C | 36% | 1019.8 hPa | 0 mm | - | 944 W/m² | - |
| 1788287970 | 26.67° C | 35% | 1019.9 hPa | 0 mm | - | 938 W/m² | - |
| 1788287668 | 26.67° C | 35% | 1019.9 hPa | 0 mm | - | 937 W/m² | - |
| 1788287368 | 26.67° C | 34% | 1020.1 hPa | 0 mm | - | 937 W/m² | - |
| 1788287067 | 26.67° C | 34% | 1020.2 hPa | 0 mm | - | 934 W/m² | - |
| 1788286766 | 26.11° C | 34% | 1020.2 hPa | 0 mm | - | 933 W/m² | - |
| 1788286465 | 25.56° C | 36% | 1020.3 hPa | 0 mm | - | 930 W/m² | - |
| 1788286165 | 25.56° C | 36% | 1020.4 hPa | 0 mm | - | 926 W/m² | - |
| 1788285864 | 25.56° C | 38% | 1020.4 hPa | 0 mm | - | 924 W/m² | - |
| 1788285563 | 25.56° C | 37% | 1020.5 hPa | 0 mm | - | 920 W/m² | - |
| 1788285261 | 25.56° C | 38% | 1020.5 hPa | 0 mm | - | 913 W/m² | - |
| 1788284960 | 25° C | 40% | 1020.5 hPa | 0 mm | - | 907 W/m² | - |
* Rain latest hour (hover to see other rain measurements)
** Current wind speed in m/s (hover to see current wind gust speed)